This is the latest recevied weather packets stored in our database for station/object W1RCP. If no packets are shown the sender has not sent any weather packets the latest 10 day(s).
| Time | Temp. | Humidity | Pressure | Rain* | Wind** | Luminosity | Snow |
|---|---|---|---|---|---|---|---|
| 1778180108 | 22.78° C | 92% | 1024.5 hPa | 0 mm | - | 362 W/m² | - |
| 1778179804 | 22.78° C | 91% | 1024.3 hPa | 0 mm | - | 422 W/m² | - |
| 1778179503 | 22.22° C | 92% | 1024.2 hPa | 0 mm | - | 619 W/m² | - |
| 1778179201 | 22.22° C | 92% | 1023.9 hPa | 0 mm | - | 288 W/m² | - |
| 1778178896 | 21.67° C | 93% | 1023.7 hPa | 1.78 mm | - | 284 W/m² | - |
| 1778178594 | 21.67° C | 93% | 1024 hPa | 1.78 mm | - | 181 W/m² | - |
| 1778178290 | 21.67° C | 93% | 1024.1 hPa | 1.27 mm | - | 70 W/m² | - |
| 1778177986 | 21.67° C | 92% | 1023.6 hPa | 1.27 mm | - | 56 W/m² | - |
| 1778177682 | 21.67° C | 92% | 1024 hPa | 0 mm | - | 59 W/m² | - |
| 1778177379 | 21.67° C | 92% | 1024.2 hPa | 1.78 mm | - | 76 W/m² | - |
| 1778177076 | 21.67° C | 92% | 1024.1 hPa | 1.78 mm | - | 77 W/m² | - |
| 1778176772 | 21.67° C | 92% | 1024.2 hPa | 1.78 mm | - | 54 W/m² | - |
| 1778176469 | 21.67° C | 92% | 1024.2 hPa | 1.78 mm | - | 32 W/m² | - |
| 1778176167 | 21.67° C | 91% | 1024.5 hPa | 1.27 mm | - | 26 W/m² | - |
| 1778175863 | 21.67° C | 91% | 1024 hPa | 1.27 mm | - | 32 W/m² | - |
| 1778175561 | 22.22° C | 91% | 1024.3 hPa | 1.78 mm | - | 33 W/m² | - |
| 1778175258 | 22.22° C | 91% | 1024.7 hPa | 3.05 mm | - | 31 W/m² | - |
| 1778174954 | 22.22° C | 92% | 1024.8 hPa | 1.27 mm | - | 32 W/m² | - |
| 1778174651 | 22.22° C | 92% | 1025 hPa | 1.78 mm | - | 29 W/m² | - |
| 1778174347 | 22.22° C | 93% | 1024.9 hPa | 1.27 mm | - | 29 W/m² | - |
| 1778174044 | 22.22° C | 92% | 1024.7 hPa | 0 mm | - | 27 W/m² | - |
| 1778173741 | 22.22° C | 93% | 1024.6 hPa | 1.78 mm | - | 28 W/m² | - |
| 1778173437 | 22.22° C | 93% | 1024.9 hPa | 1.27 mm | - | 32 W/m² | - |
| 1778173134 | 22.78° C | 93% | 1025 hPa | 0 mm | - | 36 W/m² | - |
| 1778172829 | 22.22° C | 93% | 1024.9 hPa | 0 mm | - | 45 W/m² | - |
* Rain latest hour (hover to see other rain measurements)
** Current wind speed in m/s (hover to see current wind gust speed)